Content
SEND FEEDBACK

Daily
Averages
Monthly
Summary
United States of America

CASTLE HAYNE, NORTH CAROLINA


Home > North America > United States > North Carolina
Elevation: 35 feet     Latitude: 34 19N     Longitude: 077 55W

WEATHER
 
SELECT A DAY
Number of Records: 211,687;   Date Range: 1/1/95 - 9/30/14
 
SHARE

PRINT THIS DATA

[ ← Previous Day ]
WEATHER ALMANAC - MARCH 28, 2013
[ Next Day → ]
[ °C ]   °F
Weather ElementAverageHighLow
Temperature45.9 °F57.9 °F (4:53 pm)34 °F (6:53 am)
Dewpoint25.4 °F32 °F (9:53 pm)23 °F (2:53 am)
Humidity47.6 %76 % (11:53 pm)27 % (3:53 pm)
Barometer30.21 in30.27 in (11:53 pm)30.15 in (4:53 pm)
Wind Speed7.5 mph15 mph (3:53 pm)
Wind Gust23 mph (2:53 pm)
Weather ElementAverage
Visibility10 mi
Wind DirectionWSW (260.9 °)

Weather ElementTotal
Precipitation---
Heating Degree Days19.1 (Base 65)
Averaged from 23 records on March 28, 2013
WEATHER CONDITIONS BREAKOUT
WIND DIRECTION BREAKOUT
WEATHER BY HOUR - MARCH 28, 2013
[ °C ]   °F
Local TimeTemperatureDewpointHumidityBarometerVisibilityWind DirectionWind SpeedGust SpeedPrecipitationEventsConditions
1:53 AM39.0 °F24.1 °F55 %30.22 in10.0 miNorth (360°)3.5 mphClear
2:53 AM37.9 °F23.0 °F55 %30.21 in10.0 miNW (320°)3.5 mphClear
3:53 AM37.0 °F25.0 °F62 %30.21 in10.0 miWNW (300°)4.6 mphClear
4:53 AM36.0 °F24.1 °F62 %30.21 in10.0 miNNW (330°)4.6 mphClear
5:53 AM35.1 °F23.0 °F61 %30.21 in10.0 miNW (320°)4.6 mphClear
6:53 AM34.0 °F23.0 °F64 %30.22 in10.0 miNNW (340°)3.5 mphClear
7:53 AM36.0 °F26.1 °F67 %30.24 in10.0 miNNW (330°)5.8 mphClear
8:53 AM41.0 °F26.1 °F55 %30.25 in10.0 miNNW (330°)13.8 mphClear
9:53 AM46.9 °F26.1 °F44 %30.25 in10.0 miNNW (340°)13.8 mphClear
10:53 AM50.0 °F24.1 °F36 %30.25 in10.0 miNW (310°)12.7 mphClear
11:53 AM52.0 °F23.0 °F32 %30.24 in10.0 miWNW (300°)12.7 mphClear
12:53 PM53.1 °F23.0 °F31 %30.22 in10.0 miWNW (290°)12.7 mph21.9 mphClear
1:53 PM55.9 °F25.0 °F30 %30.19 in10.0 miNW (320°)13.8 mph20.7 mphClear
2:53 PM55.9 °F24.1 °F29 %30.17 in10.0 miWNW (290°)9.2 mph23.0 mphClear
3:53 PM57.0 °F23.0 °F27 %30.16 in10.0 miWest (270°)15.0 mph21.9 mphClear
4:53 PM57.9 °F24.1 °F27 %30.15 in10.0 miWNW (300°)9.2 mphClear
5:53 PM57.0 °F24.1 °F28 %30.16 in10.0 miWNW (290°)13.8 mphClear
6:53 PM55.0 °F24.1 °F30 %30.18 in10.0 miNW (320°)10.4 mphClear
7:53 PM51.1 °F25.0 °F36 %30.20 in10.0 miNNW (340°)4.6 mphClear
8:53 PM45.0 °F28.9 °F53 %30.22 in10.0 miCalmClear
9:53 PM42.1 °F32.0 °F67 %30.24 in10.0 miCalmClear
10:53 PM42.1 °F32.0 °F67 %30.25 in10.0 miCalmClear
11:53 PM39.0 °F32.0 °F76 %30.27 in10.0 miCalmMostly Cloudy
Hourly data recorded from KILM, located miles away from Castle Hayne, North Carolina







STORIES FROM OUR PARTNERS